Weather History for Richmond, KY

Change the Weather History Date:

Wednesday, April 3, 2013

  Actual Average (KLOZ) Record (KLOZ)
Temperature  
Mean Temperature 38 °F 53 °F  
Max Temperature 50 °F 65 °F 85 °F (1963)
Min Temperature 26 °F 41 °F 23 °F (1992)
Degree Days  
Heating Degree Days 27 13  
Month to date heating degree days 39  
Since 1 July heating degree days 3864  
Cooling Degree Days 0 0  
Month to date cooling degree days 0  
Year to date cooling degree days 3  
Moisture  
Dew Point 17 °F    
Average Humidity 42    
Maximum Humidity 74    
Minimum Humidity 24    
Precipitation  
Precipitation 0.00 in 0.13 in 1.47 in (1974)
Month to date precipitation 0.39  
Year to date precipitation 11.69  
Sea Level Pressure  
Sea Level Pressure 30.29 in    
Wind  
Wind Speed 3 mph (NE)    
Max Wind Speed 12 mph    
Max Gust Speed 18 mph    
Visibility 10 miles    
Events      
T = Trace of Precipitation, MM = Missing Value Source: NWS Daily Summary

Daily Weather History Graph

Daily Weather History Graph

Search for Another Location

Airport:

Trip Planner

Search our weather history database for the weather conditions in past years. The results will help you decide how hot, cold, wet, or windy it might be!

Date:

Astronomy

Apr. 03, 2013 Rise Set
Actual Time 7:19 AM EDT 8:02 PM EDT
Civil Twilight 6:52 AM EDT 8:28 PM EDT
Nautical Twilight 6:21 AM EDT 9:00 PM EDT
Astronomical Twilight 5:49 AM EDT 9:32 PM EDT
Moon 2:52 AM EDT (4/3) 1:20 PM EDT (4/3)
Length of Visible Light 13h 35m
Length of Day
12h 42m
Last Quarter, 45% of the Moon is Illuminated
Apr 3
Last Quarter
Apr 10
New
Apr 18
First Quarter
Apr 25
Full
May 2
Last Quarter

Hourly Weather History & Observations

Time (EDT) Temp. Windchill Dew Point Humidity Pressure Visibility Wind Dir Wind Speed Gust Speed Precip Events Conditions
12:15 AM 37.4 °F - 14.0 °F 38% 30.24 in 10.0 mi Calm Calm - N/A   Clear
12:35 AM 37.4 °F - 15.8 °F 41% 30.24 in 10.0 mi Calm Calm - N/A   Clear
1:15 AM 35.6 °F - 14.0 °F 41% 30.25 in 10.0 mi Calm Calm - N/A   Clear
1:35 AM 35.6 °F - 14.0 °F 41% 30.26 in 10.0 mi Calm Calm - N/A   Clear
1:55 AM 35.6 °F 32.8 °F 15.8 °F 44% 30.26 in 10.0 mi ENE 3.5 mph - N/A   Clear
2:15 AM 35.6 °F - 15.8 °F 44% 30.27 in 10.0 mi Calm Calm - N/A   Clear
2:35 AM 33.8 °F 30.8 °F 15.8 °F 48% 30.26 in 10.0 mi NE 3.5 mph - N/A   Clear
2:55 AM 33.8 °F - 15.8 °F 48% 30.26 in 10.0 mi Calm Calm - N/A   Clear
3:15 AM 33.8 °F - 15.8 °F 48% 30.26 in 10.0 mi Calm Calm - N/A   Clear
3:35 AM 33.8 °F - 15.8 °F 48% 30.26 in 10.0 mi Calm Calm - N/A   Clear
3:55 AM 33.8 °F - 14.0 °F 44% 30.26 in 10.0 mi Calm Calm - N/A   Clear
4:15 AM 32.0 °F - 15.8 °F 51% 30.27 in 10.0 mi Calm Calm - N/A   Clear
4:35 AM 32.0 °F - 17.6 °F 55% 30.26 in 10.0 mi Calm Calm - N/A   Clear
4:55 AM 32.0 °F - 15.8 °F 51% 30.27 in 10.0 mi Calm Calm - N/A   Clear
5:15 AM 30.2 °F - 17.6 °F 60% 30.27 in 10.0 mi Calm Calm - N/A   Clear
5:35 AM 30.2 °F - 17.6 °F 60% 30.26 in 10.0 mi Calm Calm - N/A   Clear
5:55 AM 28.4 °F 24.6 °F 19.4 °F 69% 30.26 in 10.0 mi ESE 3.5 mph - N/A   Clear
6:15 AM 28.4 °F - 19.4 °F 69% 30.26 in 10.0 mi Calm Calm - N/A   Clear
6:35 AM 26.6 °F 21.2 °F 19.4 °F 74% 30.25 in 10.0 mi ENE 4.6 mph - N/A   Clear
6:55 AM 26.6 °F - 17.6 °F 69% 30.26 in 10.0 mi Calm Calm - N/A   Clear
7:15 AM 26.6 °F 22.6 °F 19.4 °F 74% 30.27 in 10.0 mi ESE 3.5 mph - N/A   Clear
7:35 AM 28.4 °F - 17.6 °F 64% 30.30 in 10.0 mi Calm Calm - N/A   Clear
7:55 AM 26.6 °F - 19.4 °F 74% 30.32 in 10.0 mi Calm Calm - N/A   Clear
8:15 AM 26.6 °F - 19.4 °F 74% 30.32 in 10.0 mi Calm Calm - N/A   Clear
8:35 AM 28.4 °F - 21.2 °F 74% 30.33 in 10.0 mi Calm Calm - N/A   Clear
8:55 AM 32.0 °F - 21.2 °F 64% 30.33 in 10.0 mi Calm Calm - N/A   Clear
9:15 AM 33.8 °F - 21.2 °F 60% 30.34 in 10.0 mi Calm Calm - N/A   Clear
9:35 AM 37.4 °F - 23.0 °F 56% 30.34 in 10.0 mi Calm Calm - N/A   Clear
9:55 AM 39.2 °F 35.0 °F 21.2 °F 49% 30.35 in 10.0 mi East 5.8 mph - N/A   Clear
10:15 AM 41.0 °F 36.4 °F 19.4 °F 42% 30.35 in 10.0 mi ENE 6.9 mph - N/A   Clear
10:35 AM 41.0 °F 35.8 °F 17.6 °F 39% 30.36 in 10.0 mi East 8.1 mph - N/A   Clear
11:15 AM 42.8 °F 38.0 °F 15.8 °F 34% 30.36 in 10.0 mi ENE 8.1 mph - N/A   Clear
11:35 AM 42.8 °F 38.0 °F 14.0 °F 31% 30.35 in 10.0 mi ENE 8.1 mph 17.3 mph N/A   Clear
11:55 AM 42.8 °F 36.6 °F 15.8 °F 34% 30.35 in 10.0 mi ENE 11.5 mph 18.4 mph N/A   Clear
12:15 PM 44.6 °F 39.7 °F 15.8 °F 31% 30.35 in 10.0 mi NE 9.2 mph - N/A   Clear
12:35 PM 44.6 °F 40.7 °F 17.6 °F 34% 30.34 in 10.0 mi East 6.9 mph 10.4 mph N/A   Clear
1:15 PM 44.6 °F 40.2 °F 17.6 °F 34% 30.33 in 10.0 mi ENE 8.1 mph - N/A   Clear
1:35 PM 46.4 °F 41.1 °F 15.8 °F 29% 30.31 in 10.0 mi NNE 11.5 mph 18.4 mph N/A   Clear
1:55 PM 46.4 °F 41.9 °F 15.8 °F 29% 30.32 in 10.0 mi NE 9.2 mph - N/A   Clear
2:15 PM 46.4 °F 41.9 °F 14.0 °F 27% 30.32 in 10.0 mi North 9.2 mph 17.3 mph N/A   Clear
2:35 PM 46.4 °F 42.9 °F 15.8 °F 29% 30.32 in 10.0 mi NNE 6.9 mph - N/A   Clear
2:55 PM 48.2 °F - 14.0 °F 25% 30.33 in 10.0 mi East 8.1 mph 16.1 mph N/A   Clear
3:15 PM 48.2 °F - 17.6 °F 30% 30.32 in 10.0 mi East 5.8 mph - N/A   Clear
3:35 PM 48.2 °F - 15.8 °F 27% 30.33 in 10.0 mi NE 10.4 mph - N/A   Clear
3:55 PM 50.0 °F - 15.8 °F 26% 30.33 in 10.0 mi ENE 10.4 mph 16.1 mph N/A   Clear
4:15 PM 50.0 °F - 14.0 °F 24% 30.32 in 10.0 mi NNE 6.9 mph - N/A   Clear
4:35 PM 48.2 °F - 14.0 °F 25% 30.31 in 10.0 mi NE 8.1 mph 16.1 mph N/A   Clear
4:55 PM 50.0 °F - 14.0 °F 24% 30.31 in 10.0 mi ENE 11.5 mph - N/A   Clear
5:15 PM 48.2 °F - 14.0 °F 25% 30.31 in 10.0 mi NE 9.2 mph - N/A   Clear
5:35 PM 48.2 °F - 14.0 °F 25% 30.31 in 10.0 mi NE 8.1 mph 16.1 mph N/A   Clear
5:55 PM 48.2 °F - 14.0 °F 25% 30.30 in 10.0 mi NNE 9.2 mph - N/A   Clear
6:15 PM 48.2 °F - 14.0 °F 25% 30.29 in 10.0 mi NNE 10.4 mph 16.1 mph N/A   Clear
6:35 PM 46.4 °F 42.4 °F 15.8 °F 29% 30.28 in 10.0 mi North 8.1 mph - N/A   Clear
6:55 PM 46.4 °F 42.4 °F 15.8 °F 29% 30.28 in 10.0 mi NNE 8.1 mph 16.1 mph N/A   Clear
7:15 PM 46.4 °F 41.5 °F 15.8 °F 29% 30.27 in 10.0 mi NNE 10.4 mph - N/A   Clear
7:35 PM 44.6 °F 40.7 °F 15.8 °F 31% 30.27 in 10.0 mi NNE 6.9 mph - N/A   Clear
7:55 PM 44.6 °F 39.7 °F 15.8 °F 31% 30.26 in 10.0 mi NNE 9.2 mph - N/A   Clear
8:15 PM 42.8 °F 39.3 °F 15.8 °F 34% 30.26 in 10.0 mi NE 5.8 mph - N/A   Clear
8:35 PM 42.8 °F 39.3 °F 15.8 °F 34% 30.26 in 10.0 mi NE 5.8 mph - N/A   Clear
8:55 PM 42.8 °F 38.6 °F 15.8 °F 34% 30.27 in 10.0 mi NE 6.9 mph - N/A   Clear
9:15 PM 41.0 °F 37.1 °F 15.8 °F 36% 30.27 in 10.0 mi NE 5.8 mph - N/A   Clear
9:35 PM 41.0 °F 37.1 °F 15.8 °F 36% 30.27 in 10.0 mi NE 5.8 mph - N/A   Clear
9:55 PM 41.0 °F 37.1 °F 15.8 °F 36% 30.28 in 10.0 mi NE 5.8 mph - N/A   Clear
10:15 PM 39.2 °F 35.9 °F 15.8 °F 39% 30.28 in 10.0 mi ENE 4.6 mph - N/A   Clear
10:35 PM 39.2 °F 37.0 °F 15.8 °F 39% 30.29 in 10.0 mi NE 3.5 mph - N/A   Clear
10:55 PM 39.2 °F 35.9 °F 15.8 °F 39% 30.29 in 10.0 mi NE 4.6 mph - N/A   Clear
11:15 PM 39.2 °F 35.9 °F 15.8 °F 39% 30.29 in 10.0 mi NE 4.6 mph - N/A   Clear
11:35 PM 39.2 °F 35.0 °F 17.6 °F 42% 30.28 in 10.0 mi NE 5.8 mph - N/A   Clear
11:55 PM 39.2 °F 34.2 °F 17.6 °F 42% 30.27 in 10.0 mi NE 6.9 mph - N/A   Clear